• En España
  • Lista de países
  • Para 7 días
  • Temperatura del agua
  • Mapa Satelital
  • El tiempo en el mapa
  • Informadores
  • user-avatar
    Iniciar sesión

    Tiempo cada hora Sao Mamede de Infesta

    Hoy, 19 Enero, Viernes

    Tiempo Temperatura Precipitaciones Viento Presión Humedad
    00:00 +9°C° 0 mm 3 mps 760 mmHg 86%
    01:00 +9°C° 0 mm 3 mps 760 mmHg 86%
    02:00 +9°C° 0 mm 3 mps 759 mmHg 86%
    03:00 +9°C° 0 mm 3 mps 759 mmHg 87%
    04:00 +9°C° 0 mm 3 mps 760 mmHg 88%
    05:00 +8°C° 0 mm 3 mps 760 mmHg 89%
    06:00 +9°C° 0 mm 3 mps 760 mmHg 88%
    07:00 +8°C° 0 mm 4 mps 760 mmHg 88%
    08:00 +8°C° 0 mm 4 mps 761 mmHg 87%
    09:00 +11°C° 0 mm 4 mps 761 mmHg 79%
    10:00 +13°C° 0 mm 4 mps 761 mmHg 72%
    11:00 +15°C° 0 mm 4 mps 761 mmHg 64%
    12:00 +17°C° 0 mm 4 mps 761 mmHg 63%
    13:00 +17°C° 0 mm 4 mps 761 mmHg 61%
    14:00 +17°C° 0 mm 4 mps 761 mmHg 60%
    15:00 +15°C° 0 mm 4 mps 761 mmHg 68%
    16:00 +13°C° 0 mm 4 mps 761 mmHg 76%
    17:00 +11°C° 0 mm 4 mps 762 mmHg 84%
    18:00 +11°C° 0 mm 4 mps 762 mmHg 85%
    19:00 +10°C° 0 mm 4 mps 763 mmHg 86%
    20:00 +9°C° 0 mm 3 mps 763 mmHg 87%
    21:00 +9°C° 0 mm 3 mps 763 mmHg 86%
    22:00 +9°C° 0 mm 2 mps 763 mmHg 85%
    23:00 +8°C° 0 mm 2 mps 764 mmHg 84%

    Mañana, 20 Enero, Sábado

    Tiempo Temperatura Precipitaciones Viento Presión Humedad
    00:00 +8°C° 0 mm 2 mps 764 mmHg 83%
    01:00 +8°C° 0 mm 2 mps 764 mmHg 83%
    02:00 +8°C° 0 mm 2 mps 764 mmHg 82%
    03:00 +8°C° 0 mm 1 mps 764 mmHg 82%
    04:00 +8°C° 0 mm 1 mps 764 mmHg 82%
    05:00 +8°C° 0 mm 1 mps 764 mmHg 82%
    06:00 +8°C° 0 mm 1 mps 764 mmHg 81%
    07:00 +9°C° 0 mm 1 mps 764 mmHg 80%
    08:00 +9°C° 0 mm 1 mps 765 mmHg 78%
    09:00 +11°C° 0 mm 1 mps 765 mmHg 74%
    10:00 +13°C° 0 mm 1 mps 765 mmHg 70%
    11:00 +15°C° 0 mm 1 mps 765 mmHg 66%
    12:00 +15°C° 0 mm 1 mps 765 mmHg 69%
    13:00 +15°C° 0 mm 2 mps 764 mmHg 72%
    14:00 +15°C° 0 mm 2 mps 764 mmHg 75%
    15:00 +14°C° 0 mm 2 mps 764 mmHg 80%
    16:00 +13°C° 0 mm 1 mps 765 mmHg 85%
    17:00 +13°C° 0 mm 1 mps 765 mmHg 91%
    18:00 +12°C° 0 mm 1 mps 765 mmHg 91%
    19:00 +12°C° 0 mm 1 mps 766 mmHg 92%
    20:00 +12°C° 0 mm 1 mps 766 mmHg 93%
    21:00 +12°C° 0 mm 1 mps 766 mmHg 93%
    22:00 +12°C° 0 mm 1 mps 766 mmHg 94%
    23:00 +12°C° 0 mm 1 mps 766 mmHg 95%

    Pasado mañana, 21 Enero, Domingo

    Tiempo Temperatura Precipitaciones Viento Presión Humedad
    00:00 +12°C° 0 mm 1 mps 766 mmHg 96%
    01:00 +12°C° 0 mm 1 mps 766 mmHg 96%
    02:00 +12°C° 0 mm 1 mps 766 mmHg 96%
    03:00 +12°C° 0 mm 1 mps 765 mmHg 96%
    04:00 +11°C° 0 mm 1 mps 765 mmHg 96%
    05:00 +11°C° 0 mm 1 mps 765 mmHg 96%
    06:00 +11°C° 0 mm 1 mps 766 mmHg 95%
    07:00 +11°C° 0 mm 1 mps 766 mmHg 94%
    08:00 +12°C° 0 mm 1 mps 766 mmHg 93%
    09:00 +13°C° 0 mm 1 mps 766 mmHg 87%
    10:00 +15°C° 0 mm 1 mps 766 mmHg 81%
    11:00 +16°C° 0 mm 1 mps 766 mmHg 76%
    12:00 +16°C° 0 mm 1 mps 766 mmHg 74%
    13:00 +17°C° 0 mm 2 mps 765 mmHg 73%
    14:00 +17°C° 0 mm 2 mps 765 mmHg 72%
    15:00 +16°C° 0 mm 1 mps 765 mmHg 77%
    16:00 +14°C° 0 mm 1 mps 765 mmHg 82%
    17:00 +13°C° 0 mm 1 mps 765 mmHg 88%
    18:00 +13°C° 0 mm 1 mps 765 mmHg 88%
    19:00 +12°C° 0 mm 1 mps 765 mmHg 89%
    20:00 +10°C° 0 mm 0 mps 766 mmHg 89%
    21:00 +11°C° 0 mm 1 mps 766 mmHg 89%
    22:00 +11°C° 0 mm 1 mps 766 mmHg 89%
    23:00 +10°C° 0 mm 1 mps 766 mmHg 89%

    22 Enero, Lunes

    Tiempo Temperatura Precipitaciones Viento Presión Humedad
    00:00 +10°C° 0 mm 1 mps 766 mmHg 89%
    01:00 +10°C° 0 mm 1 mps 765 mmHg 89%
    02:00 +10°C° 0 mm 1 mps 765 mmHg 89%
    03:00 +10°C° 0 mm 1 mps 765 mmHg 89%
    04:00 +10°C° 0 mm 1 mps 765 mmHg 90%
    05:00 +9°C° 0 mm 2 mps 765 mmHg 91%
    06:00 +10°C° 0 mm 1 mps 765 mmHg 90%
    07:00 +10°C° 0 mm 1 mps 765 mmHg 89%
    08:00 +11°C° 0 mm 1 mps 766 mmHg 88%
    09:00 +13°C° 0 mm 1 mps 765 mmHg 82%
    10:00 +15°C° 0 mm 1 mps 765 mmHg 75%
    11:00 +16°C° 0 mm 1 mps 765 mmHg 68%
    12:00 +18°C° 0 mm 1 mps 765 mmHg 66%
    13:00 +17°C° 0 mm 2 mps 764 mmHg 63%
    14:00 +17°C° 0 mm 2 mps 764 mmHg 61%
    15:00 +16°C° 0 mm 2 mps 764 mmHg 70%
    16:00 +14°C° 0 mm 1 mps 764 mmHg 78%
    17:00 +12°C° 0 mm 1 mps 764 mmHg 87%
    18:00 +12°C° 0 mm 1 mps 765 mmHg 89%
    19:00 +11°C° 0 mm 1 mps 765 mmHg 90%
    20:00 +11°C° 0 mm 1 mps 765 mmHg 92%
    21:00 +10°C° 0 mm 1 mps 765 mmHg 91%
    22:00 +10°C° 0 mm 1 mps 765 mmHg 91%
    23:00 +10°C° 0 mm 1 mps 765 mmHg 91%

    23 Enero, Martes

    Tiempo Temperatura Precipitaciones Viento Presión Humedad
    00:00 +9°C° 0 mm 1 mps 765 mmHg 89%
    01:00 +9°C° 0 mm 1 mps 765 mmHg 88%
    02:00 +9°C° 0 mm 1 mps 764 mmHg 86%
    03:00 +9°C° 0 mm 1 mps 764 mmHg 84%
    04:00 +9°C° 0 mm 1 mps 764 mmHg 82%
    05:00 +8°C° 0 mm 1 mps 764 mmHg 80%
    06:00 +9°C° 0 mm 1 mps 764 mmHg 77%
    07:00 +9°C° 0 mm 1 mps 765 mmHg 74%
    08:00 +9°C° 0 mm 1 mps 765 mmHg 71%
    09:00 +12°C° 0 mm 1 mps 765 mmHg 63%
    10:00 +14°C° 0 mm 1 mps 764 mmHg 54%
    11:00 +16°C° 0 mm 1 mps 764 mmHg 46%
    12:00 +18°C° 0 mm 1 mps 764 mmHg 46%
    13:00 +18°C° 0 mm 1 mps 763 mmHg 45%
    14:00 +19°C° 0 mm 1 mps 763 mmHg 44%
    15:00 +16°C° 0 mm 1 mps 763 mmHg 52%
    16:00 +14°C° 0 mm 1 mps 763 mmHg 59%
    17:00 +12°C° 0 mm 1 mps 763 mmHg 67%
    18:00 +12°C° 0 mm 1 mps 763 mmHg 66%
    19:00 +11°C° 0 mm 1 mps 763 mmHg 66%
    20:00 +11°C° 0 mm 1 mps 763 mmHg 66%
    21:00 +11°C° 0 mm 1 mps 763 mmHg 65%
    22:00 +9°C° 0 mm 2 mps 762 mmHg 63%
    23:00 +9°C° 0 mm 2 mps 762 mmHg 62%

    24 Enero, Miércoles

    Tiempo Temperatura Precipitaciones Viento Presión Humedad
    00:00 +9°C° 0 mm 2 mps 762 mmHg 61%
    01:00 +9°C° 0 mm 2 mps 761 mmHg 60%
    02:00 +9°C° 0 mm 3 mps 761 mmHg 58%
    03:00 +8°C° 0 mm 3 mps 761 mmHg 58%
    04:00 +8°C° 0 mm 3 mps 760 mmHg 57%
    05:00 +8°C° 0 mm 3 mps 760 mmHg 56%
    06:00 +9°C° 0 mm 3 mps 760 mmHg 55%
    07:00 +8°C° 0 mm 4 mps 760 mmHg 55%
    08:00 +8°C° 0 mm 4 mps 760 mmHg 55%
    09:00 +11°C° 0 mm 4 mps 760 mmHg 50%
    10:00 +13°C° 0 mm 4 mps 760 mmHg 45%
    11:00 +17°C° 0 mm 4 mps 760 mmHg 40%
    12:00 +16°C° 0 mm 5 mps 759 mmHg 41%
    13:00 +17°C° 0 mm 5 mps 758 mmHg 41%
    14:00 +17°C° 0 mm 5 mps 757 mmHg 42%
    15:00 +15°C° 0 mm 5 mps 757 mmHg 49%
    16:00 +14°C° 0 mm 5 mps 757 mmHg 57%
    17:00 +12°C° 0 mm 5 mps 757 mmHg 64%
    18:00 +12°C° 0 mm 5 mps 758 mmHg 69%
    19:00 +10°C° 0 mm 5 mps 758 mmHg 75%
    20:00 +10°C° 0 mm 5 mps 759 mmHg 80%
    21:00 +10°C° 0,5 mm 5 mps 759 mmHg 84%
    22:00 +10°C° 0,5 mm 5 mps 759 mmHg 87%
    23:00 +10°C° 0,5 mm 5 mps 760 mmHg 91%
    Mostrar más